Weather History for Pine Ridge, SD

Change the Weather History Date:

Monday, June 24, 2013

  Actual Average Record
Temperature  
Mean Temperature 74 °F 69 °F  
Max Temperature 88 °F 83 °F 102 °F (2007)
Min Temperature 59 °F 54 °F 46 °F (2003)
Degree Days  
Heating Degree Days 0 2  
Month to date heating degree days 78 81  
Since 1 June heating degree days 78 81  
Since 1 July heating degree days 7151 7208  
Cooling Degree Days 9 5  
Month to date cooling degree days 53 75  
Year to date cooling degree days 70 92  
Since 1 June cooling degree days 53 75  
Growing Degree Days 24 (Base 50)    
Moisture  
Dew Point 55 °F    
Average Humidity 61    
Maximum Humidity 87    
Minimum Humidity 35    
Precipitation  
Precipitation 0.25 in 0.11 in 0.51 in (2005)
Month to date precipitation 2.11 2.91  
Year to date precipitation 9.87 9.15  
Sea Level Pressure  
Sea Level Pressure 29.68 in    
Wind  
Wind Speed 13 mph (SSE)    
Max Wind Speed 32 mph    
Max Gust Speed 40 mph    
Visibility 9 miles    
Events Rain , Thunderstorm    
T = Trace of Precipitation, MM = Missing Value Source: NWS Daily Summary

Daily Weather History Graph

Daily Weather History Graph

Search for Another Location

Airport:

Trip Planner

Search our weather history database for the weather conditions in past years. The results will help you decide how hot, cold, wet, or windy it might be!

Date:

Astronomy

Jun. 24, 2013 Rise Set
Actual Time 5:11 AM MDT 8:33 PM MDT
Civil Twilight 4:36 AM MDT 9:08 PM MDT
Nautical Twilight 3:50 AM MDT 9:54 PM MDT
Astronomical Twilight 2:53 AM MDT 10:51 PM MDT
Moon 9:33 PM MDT (6/24) 6:44 AM MDT (6/24)
Length of Visible Light 16h 32m
Length of Day
15h 21m
Full, 97% of the Moon is Illuminated
Jun 24
Full
Jun 29
Last Quarter
Jul 8
New
Jul 15
First Quarter
Jul 22
Full

Hourly Weather History & Observations

Time (MDT) Temp. Heat Index Dew Point Humidity Pressure Visibility Wind Dir Wind Speed Gust Speed Precip Events Conditions
12:52 AM 66.9 °F - 60.1 °F 79% 29.75 in 10.0 mi East 9.2 mph - N/A   Clear
1:52 AM 66.9 °F - 62.1 °F 84% 29.70 in 10.0 mi SE 17.3 mph 25.3 mph N/A   Clear
2:52 AM 68.0 °F - 62.1 °F 81% 29.68 in 10.0 mi SSE 21.9 mph 32.2 mph N/A   Clear
3:52 AM 68.0 °F - 60.1 °F 76% 29.68 in 10.0 mi SSE 16.1 mph 28.8 mph N/A   Clear
4:52 AM 66.9 °F - 60.1 °F 79% 29.68 in 10.0 mi SSE 17.3 mph 31.1 mph N/A   Clear
5:52 AM 64.9 °F - 59.0 °F 81% 29.67 in 10.0 mi SE 6.9 mph - N/A   Clear
6:52 AM 66.9 °F - 55.9 °F 68% 29.66 in 10.0 mi Variable 3.5 mph - N/A   Clear
7:52 AM 71.1 °F - 55.0 °F 57% 29.66 in 10.0 mi SW 11.5 mph - N/A   Clear
8:52 AM 75.0 °F - 55.9 °F 51% 29.66 in 10.0 mi South 13.8 mph - N/A   Clear
9:52 AM 78.1 °F - 55.9 °F 46% 29.66 in 10.0 mi South 9.2 mph - N/A   Clear
10:52 AM 81.0 °F 80.7 °F 55.0 °F 41% 29.66 in 10.0 mi SSE 13.8 mph 20.7 mph N/A   Clear
11:52 AM 84.9 °F 83.6 °F 55.0 °F 36% 29.64 in 10.0 mi South 12.7 mph 24.2 mph N/A   Clear
12:52 PM 86.0 °F 84.7 °F 55.9 °F 36% 29.62 in 10.0 mi SSW 15.0 mph - N/A   Clear
1:52 PM 86.0 °F 84.7 °F 55.9 °F 36% 29.60 in 10.0 mi South 12.7 mph 19.6 mph N/A   Clear
2:52 PM 87.1 °F 85.9 °F 57.0 °F 36% 29.58 in 10.0 mi South 16.1 mph 21.9 mph N/A   Clear
3:52 PM 84.0 °F 83.8 °F 59.0 °F 43% 29.58 in 10.0 mi ESE 6.9 mph - N/A   Clear
4:40 PM 84.2 °F 82.8 °F 53.6 °F 35% 29.72 in 10.0 mi Variable 6.9 mph 19.6 mph N/A Thunderstorm Mostly Cloudy
4:52 PM 78.1 °F - 46.9 °F 33% 29.65 in 10.0 mi NW 24.2 mph 32.2 mph N/A Thunderstorm Thunderstorm
5:10 PM 73.4 °F - 46.4 °F 38% 29.75 in 1.8 mi NW 19.6 mph 27.6 mph N/A Thunderstorm Unknown
5:23 PM 62.6 °F - 51.8 °F 68% 29.76 in 3.0 mi NNE 6.9 mph - 0.13 in Rain , Thunderstorm Heavy Thunderstorms and Rain
5:52 PM 63.0 °F - 55.0 °F 75% 29.73 in 10.0 mi Calm Calm - 0.16 in Rain , Thunderstorm Light Rain
6:52 PM 64.9 °F - 54.0 °F 68% 29.70 in 10.0 mi East 12.7 mph 20.7 mph 0.05 in Rain , Thunderstorm Light Thunderstorms and Rain
6:59 PM 66.2 °F - 53.6 °F 64% 29.76 in 10.0 mi East 12.7 mph - 0.00 in Thunderstorm Thunderstorm
7:41 PM 68.0 °F - 51.8 °F 56% 29.72 in 10.0 mi East 11.5 mph - 0.01 in   Partly Cloudy
7:52 PM 69.1 °F - 52.0 °F 54% 29.62 in 10.0 mi East 9.2 mph - 0.01 in   Clear
8:52 PM 69.1 °F - 52.0 °F 54% 29.72 in 10.0 mi SW 19.6 mph 31.1 mph N/A Thunderstorm Thunderstorm
9:17 PM 66.2 °F - 53.6 °F 64% 29.75 in 8.0 mi SSE 23.0 mph 32.2 mph 0.03 in Rain , Thunderstorm Light Thunderstorms and Rain
9:48 PM 64.4 °F - 53.6 °F 68% 29.76 in 10.0 mi SE 12.7 mph - 0.03 in   Scattered Clouds
9:52 PM 68.0 °F - 53.1 °F 59% 29.66 in 10.0 mi South 27.6 mph 39.1 mph 0.03 in   Partly Cloudy
10:52 PM 71.1 °F - 48.0 °F 44% 29.60 in 10.0 mi SE 12.7 mph 25.3 mph N/A   Clear
11:52 PM 64.0 °F - 50.0 °F 60% 29.59 in 10.0 mi West 5.8 mph - N/A   Clear